Weather in Sosnovo-Ozerskoe

Russia / Republic of Buryatia     52°31′43″N   111°32′15″E
temp.,
°C
wind,
m/s
gust,
m/s
humid.,
%
clouds,
%
prec.,
mm/h
press.,
hPa
HPBL,
m
19 september, sun
sun1923:00+5ese23920 0.0 101738
02:00+4e22925 0.0 101816
05:00+3e22935 0.0 101915
08:00+6e238478 0.0 1018136
11:00+13se335689 0.0 1015664
14:00+17sse34405 0.0 10121230
17:00+17sse35465 0.0 1011279
20:00+10se34745 0.0 101247
20 september, mon
mon2023:00+8se12785 0.0 101311
02:00+7ese118316 0.0 101210
05:00+6ese118745 0.0 101210
08:00+9ese11799 0.0 1012102
11:00+15se12600 0.0 1009558
14:00+18se12440 0.0 10061455
17:00+18ese34452 0.0 1005274
20:00+11se497933 0.0 1007160
21 september, tue
tue2123:00+9ese368711 0.0 1007115
02:00+8e34935 0.0 100764
05:00+7ene34944 0.0 100758
08:00+9e23855 0.0 1006161
11:00+14wsw346588 0.0 1005795
14:00+13wsw6673100 0.4 1005879
17:00+10wsw5787100 1.3 1006578
20:00+7w369579 1.3 1008310
22 september, wed
wed2223:00+6wsw1293100 0.0 100981
02:00+5w249395 0.0 1010118
05:00+3wsw359049 0.0 1011125
08:00+5w35853 0.0 1011243
11:00+9wsw45615 0.0 1010844
14:00+12wsw56496 0.0 10091241
17:00+11wsw45516 0.0 10101006
20:00+6nw336919 0.0 101335
23 september, thu
thu2323:00+3n2276100 0.0 101411
02:00+3nnw227215 0.0 101515
05:00+1wnw2281100 0.0 101611
08:00+4wsw2371100 0.0 1017189
11:00+7w565876 0.0 1016752
14:00+10wsw674568 0.0 10151774
17:00+8wsw775843 0.0 10171133
20:00+4wsw587289 0.1 1021536